Regional Weather Roundup
Issued by NWS

Home | Current Version | Previous Version | Text Only | Print | Product List | Glossary On
Versions: 1 2 3 4 5 6 7 8 9 10 11 12 13 14 15 16 17 18 19 20 21 22 23 24 25 26 27 28 29 30 31 32 33 34 35 36 37 38 39 40 41 42 43 44 45 46 47 48 49 50
000
ASUS44 KBMX 230910
RWRAL

ALABAMA REGIONAL WEATHER ROUNDUP
NATIONAL WEATHER SERVICE BIRMINGHAM AL
400 AM CDT WED JUL 23 2014

NOTE: "FAIR" INDICATES FEW OR NO CLOUDS BELOW 12,000 FEET
WITH NO SIGNIFICANT WEATHER AND/OR OBSTRUCTIONS TO VISIBILITY.

THE REMARK "TC" DENOTES TEMPERATURE IN DEGREES CELSIUS.

ALZ001>011-014-016>018-020-231000-
NORTH ALABAMA

CITY           SKY/WX    TMP DP  RH WIND       PRES   REMARKS
MUSCLE SHOALS  CLOUDY    74  71  91 CALM      30.07S
HUNTSVILLE     MOCLDY    76  73  91 CALM      30.07S
DECATUR        CLOUDY    75  73  93 SE3       30.07S
HALEYVILLE     FAIR      71  71 100 CALM      30.10S
GADSDEN        CLEAR     70  68  94 CALM      30.08R
$$

ALZ012-013-022-023-030>036-040>044-231000-
WEST CENTRAL ALABAMA

CITY           SKY/WX    TMP DP  RH WIND       PRES   REMARKS
TUSCALOOSA     CLEAR     72  71  97 CALM      30.05S FOG
$$

ALZ015-024>027-033>036-040>044-231000-
CENTRAL ALABAMA

CITY           SKY/WX    TMP DP  RH WIND       PRES   REMARKS
BIRMINGHAM     PTCLDY    73  70  90 CALM      30.09S
MONTGOMERY     CLEAR     73  70  90 CALM      30.05S
SHELBY CO ARPT CLEAR     73  71  93 CALM      30.07R
MAXWELL AFB    CLEAR     73  73 100 N3        30.05R
GREENVILLE     FAIR      70  68  93 CALM      30.04F
$$

ALZ019-021-028-029-037-038-045>048-231000-
EAST CENTRAL ALABAMA

CITY           SKY/WX    TMP DP  RH WIND       PRES   REMARKS
ANNISTON       PTCLDY    71  69  93 NE3       30.08R
ALEXANDER CITY CLEAR     76  71  85 CALM      30.08S
AUBURN         CLEAR     70  66  88 NE3       30.10S
$$

ALZ051>064-231000-
SOUTHWEST ALABAMA

CITY           SKY/WX    TMP DP  RH WIND       PRES   REMARKS
MOBILE         CLEAR     70  70 100 CALM      30.03F
BROOKLEY FIELD CLEAR     72  71  97 CALM      30.03F
EVERGREEN      PTCLDY    71  70  96 CALM      30.05R FOG
$$

ALZ049-050-065>069-231000-
SOUTHEAST ALABAMA

CITY           SKY/WX    TMP DP  RH WIND       PRES   REMARKS
DOTHAN         CLEAR     72  71  97 CALM      30.08S
OZARK          CLEAR     73  72  97 CALM      30.04F
TROY           PTCLDY    71  69  93 CALM      30.05F
EUFAULA        MOCLDY    70  68  94 CALM      30.04S FOG
$$


USA.gov is the U.S. government's official web portal to all federal, state and local government web resources and services.